Current Version              Previous Version:    01  02  03  04  05  06  07  08  09  10  11  12  13  14  15  16  17  18  19  20  21  22  23  24  25  26  27  28  29  30  
   31  32  33  34  35  36  37  38  39  40  41  42  43  44  45  46  47  48  49  50  51  52  53  54  55  56  57  58  59  60  

[Printable]
607
ASUS44 KLUB 240310
RWRTX
WEST TEXAS WEATHER ROUNDUP
NATIONAL WEATHER SERVICE LUBBOCK TX
900 PM CST SUN NOV 23 2014

NOTE: "FAIR" INDICATES FEW OR NO CLOUDS BELOW 12,000 FEET WITH NO
SIGNIFICANT WEATHER AND/OR OBSTRUCTIONS TO VISIBILITY.

TXZ004-006>008-010-012-014-016-OKZ002-240400-
TEXAS PANHANDLE/OKLAHOMA PANHANDLE

CITY           SKY/WX    TMP DP  RH WIND       PRES   REMARKS
AMARILLO       CLEAR     33  30  88 W8        29.88R WCI  26
BORGER         PTCLDY    37  11  34 W6        29.86R WCI  32
CANADIAN       PTCLDY    40  22  49 NW7       29.82R WCI  35
DALHART        PTCLDY    33  23  66 NW10      29.89R WCI  25
DUMAS            N/A     31  18  57 W10       29.88R WCI  22
GUYMON         MOCLDY    38  14  37 W9        29.85R WCI  31
HEREFORD       CLEAR     33  31  92 SW9       29.91R WCI  26
PAMPA          PTCLDY    33  16  49 NW10      29.85R WCI  25
PERRYTON       PTCLDY    34  19  55 NW10      29.82R WCI  26
$$

TXZ026-029-035-045-048-240400-
SOUTHERN PANHANDLE/SOUTH PLAINS/ROLLING PLAINS

CITY           SKY/WX    TMP DP  RH WIND       PRES   REMARKS
CHILDRESS      PTCLDY    42  35  76 W9        29.85R
SEMINOLE       MOCLDY    40  27  59 N8        29.94S WCI  35
LUBBOCK        PTCLDY    35  25  66 W8        29.90R WCI  29
PLAINVIEW      CLEAR     35  28  73 NW10      29.89R WCI  28
SNYDER         MOCLDY    44  33  66 N12       29.90R
$$

TXZ052-054-060>062-072-078-127-140-154-169-240400-
PERMIAN BASIN/CONCHO VALLEY/BIG COUNTRY/EDWARDS PLATEAU

CITY           SKY/WX    TMP DP  RH WIND       PRES   REMARKS
ABILENE        MOCLDY    49  35  58 N24       29.86R
BIG SPRING     MOCLDY    47  29  49 N14       29.93R
BRADY          CLEAR     54  37  54 N17       29.82R
BROWNWOOD      CLOUDY    52  36  54 N23G33    29.83R
JUNCTION       CLEAR     64  33  31 N14G22    29.78R
MIDLAND        CLOUDY    47  28  47 N16       29.92R
ODESSA         CLOUDY    46  27  47 N12       29.93R
SAN ANGELO     CLEAR     56  34  43 N9        29.86R
SONORA         CLEAR     63  28  27 N13       29.87R
SWEETWATER     MOCLDY    47  35  62 NW12G17   29.91R
WINK           PTCLDY    47  26  44 N16G23    29.94R
$$

TXZ055-058-074-075-080-082-240400-
FAR WEST/SOUTHWEST MOUNTAINS/TRANS PECOS

CITY           SKY/WX    TMP DP  RH WIND       PRES   REMARKS
ALPINE         CLEAR     51  25  36 NW8       30.01R
DRYDEN           N/A     65  25  22 NW9       29.83R
EL PASO        MOCLDY    53   0  11 N13       29.99R
FORT STOCKTON  CLEAR     51  30  44 N23G30    29.94R
GUADALUPE PASS PTCLDY    43  20  39 E13       29.99R
MARFA          CLEAR     52  25  35 NW15G22   29.98R
PECOS          CLEAR     49  30  48 N18       29.96R
PRESIDIO       FAIR      63  29  28 W3        29.88R
$$

TXZ014-016-019-021>030-083-240400
TEXAS TECH WEST TEXAS MESONET/TEXAS PANHANDLE/NORTHERN SOUTH PLAINS

CITY           SKY/WX    TMP DP  RH WIND       PRES   REMARKS
ABERNATHY 5ENE   N/A     35  28  76 W8        29.91R WCI  28
AMARILLO 9NNE    N/A     33  31  93 CALM      29.89R
AMARILLO 7SSE    N/A     30  28  91 W7        29.89R WCI  24
AMHERST 1NE      N/A     35  29  78 W8        29.91R WCI  29
BOOTLEG 11WNW    N/A     30  28  90 W8        29.93R WCI  22
CANADIAN 6E      N/A     35  23  61 NW6       29.81R WCI  29
CAPROCK CYN SP   N/A     40  31  68 W16       29.87R WCI  32
CHILDRESS 2NNE   N/A     41  35  79 W12       29.83S
CLARENDON 2WSW   N/A     35  28  74 W9        29.85S WCI  28
CLAUDE 12SW      N/A     36  30  81 W10       29.89R WCI  28
DIMMITT 2NE      N/A     33  28  80 W10       29.90S WCI  25
FLOYDADA 2NNE    N/A     29  26  88 W8        29.89R WCI  21
FRIONA 2NE       N/A     33  29  86 W10       29.92R WCI  25
GOODLETT 3W      N/A     44  34  68 W9        29.83R
HART 3N          N/A     31  26  83 W8        29.90R WCI  24
HEREFORD 2NW     N/A     32  28  84 W9        29.91R WCI  24
MCLEAN 1E        N/A     36  23  58 NW10      29.81R WCI  29
MEMPHIS 1NE      N/A     41  34  75 W3        29.85R
MULESHOE 2SSW    N/A     33  31  89 W7        29.92S WCI  27
OLTON 6S         N/A     34  28  79 W10       29.90R WCI  26
PALO DURO SP     N/A     33  30  87 W10       29.90R WCI  25
PAMPA 2E         N/A     34  18  51 NW8       29.84R WCI  28
PLAINVIEW 1S     N/A     37  28  72 NW10      29.89R WCI  29
SILVERTON 7ESE   N/A     35  30  79 W13       29.88R WCI  27
TULIA 2ENE       N/A     34  30  86 W12       29.89R WCI  25
TURKEY 2WSW      N/A     41  31  69 W10       29.86R
UMBARGER 3NNE    N/A     31  29  91 W7        29.90R WCI  24
$$

TXZ033>036-039>041-045>048-240400
TEXAS TECH WEST TEXAS MESONET/SOUTH PLAINS

CITY           SKY/WX    TMP DP  RH WIND       PRES   REMARKS
AIKEN 3WSW       N/A     35  27  72 W12       29.91R WCI  27
ANTON 6SSW       N/A     35  28  78 W9        29.91R WCI  27
BROWNFIELD 2S    N/A     38  26  63 NW13      29.91R WCI  30
DENVR CTY 7WNW   N/A     36  27  69 NW7       29.93R WCI  30
GAIL 2ESE        N/A     43  30  59 N8        29.90R
LAMESA 2SE       N/A     42  29  61 NW8       29.92R
LEVELLAND 4S     N/A     33  27  77 NW6       29.91R WCI  27
LUBBOCK 3WNW     N/A     37  26  64 NW7       29.91R WCI  32
MORTON 1ENE      N/A     31  27  85 W7        29.92R WCI  25
ODONNELL 1N      N/A     39  29  67 N6        29.90R WCI  35
PLAINS 3N        N/A     35  26  70 NW7       29.93R WCI  29
RALLS 1SE        N/A     38  29  68 NW9       29.89R WCI  32
REESE CENTER     N/A     35  27  74 NW9       29.90R WCI  27
SEAGRAVES 1SW    N/A     32  25  76 NW7       29.93R WCI  26
SEMINOLE 2NNE    N/A     39  27  61 NW5       29.93R
SLATON 2NE       N/A     37  27  67 NW8       29.89S WCI  31
SNYDER 3E        N/A     44  35  70 N9        29.88R
SUNDOWN 8SW      N/A     33  28  79 W9        29.92R WCI  26
TAHOKA 3NNE      N/A     38  26  62 NW12      29.90R WCI  30
WOLFFORTH 6SSW   N/A     37  27  66 NW7       29.90S WCI  32
$$

TXZ031-032-036>038-042>044-240400-
TEXAS TECH WEST TEXAS MESONET/ROLLING PLAINS

CITY           SKY/WX    TMP DP  RH WIND       PRES   REMARKS
ASPERMONT 3NE    N/A     44  35  70 NW10      29.87R
FLUVANNA 3WNW    N/A     41  31  65 N6        29.89R
GRAHAM 5SSW      N/A     39  30  70 NW7       29.90R WCI  34
GUTHRIE 10WSW    N/A     40  34  78 W6        29.87R
HASKELL 1NW      N/A     45  35  68 NW13      29.86R
JAYTON 1SSE      N/A     42  34  72 NW5       29.88R
KNOX CITY 3NW    N/A     46  35  64 NW8       29.86S
LK A HENRY 1NW   N/A     41  32  71 NW8       29.89R
NORTHFIELD 1S    N/A     39  35  84 W7        29.86R WCI  34
ODELL 4ENE       N/A     48  34  58 NW7       29.81R
PADUCAH 10SW     N/A     41  34  77 W7        29.85S
POST 1NE         N/A     40  30  65 NW10      29.88S WCI  34
RRING SPRGS 3N   N/A     35  31  87 W10       29.87R WCI  27
SEYMOUR 3NW      N/A     47  36  63 NW10      29.83R
SPUR 1W          N/A     38  31  75 NW5       29.87R WCI  35
WEINERT 2NNE     N/A     46  35  66 NW12      29.85R
WHITE RVR 6NE    N/A     40  29  64 NW13      29.87R WCI  33
$$

TXZ052-054-060>062-072-078-127-140-154-169-240400-
TEXAS TECH WEST TEXAS MESONET/PERMIAN BASIN/
CONCHO VALLEY/BIG COUNTRY/EDWARDS PLATEAU

CITY           SKY/WX    TMP DP  RH WIND       PRES   REMARKS
JUNCTION 1SSW    N/A     64  34  33 N18       29.81R
MERTZON 3NNE     N/A     51  33  49 N21       29.90R
SAN ANGELO 7NW   N/A     52  32  46 NW12      29.87R
STRLNG CT 4WSW   N/A     47  33  58 NW9       29.91R
ST LAWRNCE 5SW   N/A     47  29  50 N17       29.92R
SWEETWATR 11SW   N/A     45  34  65 N15       29.89R
WALL 1E          N/A     53  33  47 N15       29.87R
$$

TXZ055-058-074-075-080-082-240400-
TEXAS TECH WEST TEXAS MESONET/FAR WEST/SOUTHWEST MOUNTAINS/TRANS PECOS

CITY           SKY/WX    TMP DP  RH WIND       PRES   REMARKS
GUADLPE MTN NP   N/A     47   2  16 N8        29.97R
$$